EW0754 Weather Reports


Display with metric or nautical units.
time (UTC)temp
F
wind
direction
speed
MPH
gust
MPH
rain 1hr
in
rain 24hr
in
rain mn
in
humidity
%
barometer
mb
20260504021903 53 261 7.0 16.0 0.00 0.02 0.02 58 1008.1
20260504021404 53 272 9.0 15.0 0.00 0.02 0.02 58 1008.1
20260504020904 53 260 7.0 14.0 0.00 0.02 0.02 58 1008.1
20260504020404 53 266 9.0 14.0 0.00 0.02 0.02 57 1008.1
20260504015903 53 282 7.0 13.0 0.00 0.02 0.02 58 1008.2
20260504014404 54 269 9.0 15.0 0.00 0.02 0.02 56 1008.2
20260504013904 54 275 12.0 21.0 0.00 0.02 0.02 56 1008.2
20260504013404 54 274 8.0 14.0 0.00 0.02 0.02 57 1008.3
20260504012904 53 276 8.0 13.0 0.00 0.02 0.02 57 1008.3
20260504012404 53 271 7.0 12.0 0.00 0.02 0.02 58 1008.3
20260504011904 53 260 8.0 17.0 0.00 0.02 0.02 58 1008.4
20260504011403 53 274 11.0 17.0 0.00 0.02 0.02 58 1008.4
20260504010904 53 282 10.0 17.0 0.00 0.02 0.02 59 1008.3
20260504010404 53 265 9.0 16.0 0.00 0.02 0.02 59 1008.3
20260504005903 53 268 8.0 15.0 0.00 0.02 0.02 60 1008.3
20260504004904 53 269 6.0 12.0 0.00 0.02 0.02 61 1008.4
20260504003903 52 273 3.0 10.0 0.01 0.02 0.02 63 1008.4
20260504003403 52 255 6.0 12.0 0.01 0.02 0.02 63 1008.4
20260504001904 51 259 3.0 7.0 0.01 0.02 0.02 67 1008.5
20260504001403 51 258 4.0 8.0 0.01 0.02 0.02 68 1008.5
20260504000904 50 258 4.0 6.0 0.01 0.02 0.02 70 1008.4
20260503235904 50 258 2.0 3.0 0.01 0.02 0.02 74 1008.5
20260503235403 50 238 2.0 5.0 0.01 0.02 0.02 74 1008.7
20260503234903 49 256 2.0 3.0 0.02 0.02 0.02 76 1008.8
20260503233404 49 299 1.0 3.0 0.01 0.01 0.01 80 1009.1
20260503232404 49 294 3.0 5.0 0.01 0.01 0.01 78 1009.1
20260503231903 50 295 5.0 8.0 0.01 0.01 0.01 77 1009.2
20260503231404 50 307 5.0 7.0 0.01 0.01 0.01 75 1009.2
20260503230903 50 295 5.0 8.0 0.01 0.01 0.01 76 1009.2
20260503225904 50 303 5.0 8.0 0.01 0.01 0.01 74 1009.2
20260503225404 51 316 4.0 6.0 0.01 0.01 0.01 72 1009.1
20260503223903 51 299 7.0 15.0 0.00 0.00 0.00 69 1009.3
20260503222903 52 301 10.0 13.0 0.00 0.00 0.00 66 1009.2
20260503222403 52 302 9.0 16.0 0.00 0.00 0.00 65 1009.1
20260503221903 53 295 10.0 16.0 0.00 0.00 0.00 65 1009.1
20260503221404 53 288 10.0 17.0 0.00 0.00 0.00 63 1009.0
20260503220903 53 276 8.0 14.0 0.00 0.00 0.00 63 1008.8
20260503220403 53 283 8.0 15.0 0.00 0.00 0.00 63 1008.8
20260503215904 53 273 6.0 15.0 0.00 0.00 0.00 62 1008.7
20260503213903 52 253 6.0 13.0 0.00 0.00 0.00 63 1008.6
20260503213403 52 264 5.0 18.0 0.00 0.00 0.00 63 1008.6
20260503212904 52 276 7.0 13.0 0.00 0.00 0.00 62 1008.6
20260503212404 52 263 9.0 15.0 0.00 0.00 0.00 61 1008.5
20260503211904 52 265 8.0 17.0 0.00 0.00 0.00 62 1008.5
20260503211404 52 285 9.0 17.0 0.00 0.00 0.00 61 1008.6
20260503210904 52 263 9.0 14.0 0.00 0.00 0.00 61 1008.6
20260503205904 52 269 9.0 14.0 0.00 0.00 0.00 61 1008.6
20260503205404 52 272 7.0 10.0 0.00 0.00 0.00 60 1008.7
20260503204903 53 265 7.0 14.0 0.00 0.00 0.00 60 1008.7
20260503204403 53 268 8.0 15.0 0.00 0.00 0.00 60 1008.7
20260503203403 53 269 10.0 17.0 0.00 0.00 0.00 59 1008.8
20260503202404 53 260 8.0 16.0 0.00 0.00 0.00 59 1008.9
20260503201904 53 282 10.0 21.0 0.00 0.00 0.00 59 1008.9
20260503201404 54 250 7.0 12.0 0.00 0.00 0.00 59 1008.9
20260503200904 54 257 8.0 14.0 0.00 0.00 0.00 58 1009.0
20260503200404 54 268 7.0 14.0 0.00 0.00 0.00 58 1009.0
20260503194904 54 252 9.0 18.0 0.00 0.00 0.00 57 1009.4
20260503194404 54 270 9.0 15.0 0.00 0.00 0.00 57 1009.5
20260503193903 54 259 10.0 20.0 0.00 0.00 0.00 55 1009.6
20260503192903 54 263 10.0 20.0 0.00 0.00 0.00 56 1009.7
20260503192404 54 270 10.0 16.0 0.00 0.00 0.00 55 1009.8
20260503191904 54 273 13.0 22.0 0.00 0.00 0.00 57 1009.9
20260503191403 54 278 14.0 26.0 0.00 0.00 0.00 53 1010.0
20260503185903 53 266 12.0 21.0 0.00 0.00 0.00 51 1010.2
20260503185404 54 276 12.0 22.0 0.00 0.00 0.00 51 1010.3
20260503184904 54 273 12.0 18.0 0.00 0.00 0.00 50 1010.3
20260503184403 54 273 12.0 21.0 0.00 0.00 0.00 51 1010.4
20260503183904 54 276 11.0 20.0 0.00 0.00 0.00 51 1010.5
20260503183403 53 264 13.0 22.0 0.00 0.00 0.00 50 1010.6
20260503181903 53 266 8.0 20.0 0.00 0.00 0.00 53 1010.9
20260503181404 53 272 6.0 18.0 0.00 0.00 0.00 56 1011.0
20260503180904 53 284 9.0 18.0 0.00 0.00 0.00 57 1011.1
20260503180404 53 294 10.0 20.0 0.00 0.00 0.00 52 1011.1
20260503175903 52 259 8.0 16.0 0.00 0.00 0.00 54 1011.1
20260503175403 52 298 11.0 21.0 0.00 0.00 0.00 53 1011.1
20260503174904 52 253 9.0 18.0 0.00 0.00 0.00 55 1011.2
20260503174404 53 283 11.0 22.0 0.00 0.00 0.00 57 1011.3
20260503173404 52 248 10.0 20.0 0.00 0.00 0.00 53 1011.6
20260503172904 52 294 13.0 23.0 0.00 0.00 0.00 48 1011.6
20260503172404 52 258 8.0 17.0 0.00 0.00 0.00 50 1011.6
20260503171903 52 272 10.0 17.0 0.00 0.00 0.00 51 1011.7
20260503171403 51 288 9.0 16.0 0.00 0.00 0.00 52 1011.7
20260503170904 51 271 9.0 16.0 0.00 0.00 0.00 50 1011.9
20260503150904 49 308 5.0 10.0 0.00 0.00 0.00 64 1012.8
20260503150403 49 306 10.0 14.0 0.00 0.00 0.00 63 1012.9
20260503131404 44 259 7.0 12.0 0.00 0.00 0.00 74 1013.4
20260503130903 44 273 5.0 10.0 0.00 0.00 0.00 75 1013.5
20260503130403 43 265 5.0 10.0 0.00 0.00 0.00 75 1013.5
20260503110404 33 214 1.0 2.0 0.00 0.00 0.00 78 1013.7
20260503080903 34 282 1.0 3.0 0.00 0.00 0.00 81 1013.9
20260503080403 34 295 1.0 3.0 0.00 0.00 0.00 81 1013.9
20260503072903 34 241 0.0 1.0 0.00 0.00 0.00 82 1013.7
20260503072403 34 237 0.0 1.0 0.00 0.00 0.00 82 1013.7
20260503071903 34 236 0.0 1.0 0.00 0.00 0.00 82 1013.8
20260503071403 34 240 0.0 1.0 0.00 0.00 0.00 82 1013.8
20260503070904 34 257 0.0 1.0 0.00 0.00 0.00 82 1013.8
20260503070404 34 258 0.0 1.0 0.00 0.00 0.00 82 1013.8
20260503054903 36 245 0.0 3.0 0.00 0.00 0.00 79 1014.0
20260503053404 36 210 1.0 2.0 0.00 0.00 0.00 78 1014.1
20260503052904 37 214 1.0 1.0 0.00 0.00 0.00 77 1014.2
20260503052404 37 207 1.0 3.0 0.00 0.00 0.00 77 1014.2
20260503051904 37 228 1.0 3.0 0.00 0.00 0.00 77 1014.2
20260503051404 37 274 1.0 2.0 0.00 0.00 0.00 77 1014.3
20260503050903 37 230 0.0 3.0 0.00 0.00 0.00 77 1014.3
20260503050403 37 234 0.0 2.0 0.00 0.00 0.00 77 1014.3
20260503045904 37 252 0.0 1.0 0.00 0.00 0.00 77 1014.3
20260503045404 37 238 0.0 1.0 0.00 0.00 0.00 76 1014.4
20260503044403 37 252 0.0 1.0 0.00 0.00 0.00 76 1014.3
20260503043904 38 252 0.0 1.0 0.00 0.00 0.00 76 1014.4
20260503043403 38 219 0.0 1.0 0.00 0.00 0.00 75 1014.4
20260503042404 38 252 0.0 1.0 0.00 0.00 0.00 75 1014.5
20260503041903 38 243 0.0 1.0 0.00 0.00 0.00 75 1014.5
20260503041403 38 242 0.0 1.0 0.00 0.00 0.00 75 1014.6
20260503040404 39 252 0.0 1.0 0.00 0.00 0.00 75 1014.6
20260503035903 39 255 0.0 1.0 0.00 0.00 0.00 75 1014.6
20260503035403 39 245 1.0 2.0 0.00 0.00 0.00 74 1014.6
20260503034903 39 238 0.0 1.0 0.00 0.00 0.00 74 1014.6
20260503034404 39 264 0.0 1.0 0.00 0.00 0.00 74 1014.6
20260503033903 39 250 0.0 1.0 0.00 0.00 0.00 74 1014.7
20260503033403 39 246 0.0 1.0 0.00 0.00 0.00 74 1014.7
20260503032404 39 256 0.0 1.0 0.00 0.00 0.00 74 1014.7
20260503031904 39 260 0.0 1.0 0.00 0.00 0.00 74 1014.7
20260503031404 39 255 0.0 2.0 0.00 0.00 0.00 74 1014.7
20260503030903 40 264 0.0 1.0 0.00 0.00 0.00 74 1014.7
20260503030404 40 259 0.0 2.0 0.00 0.00 0.00 73 1014.7
20260503025904 40 255 1.0 2.0 0.00 0.00 0.00 73 1014.7
20260503025404 40 253 0.0 2.0 0.00 0.00 0.00 73 1014.8
20260503024903 40 248 1.0 2.0 0.00 0.00 0.00 73 1014.8
20260503024403 40 265 1.0 2.0 0.00 0.00 0.00 73 1014.8
20260503023403 40 271 1.0 3.0 0.00 0.00 0.00 73 1014.8
20260503022903 40 242 0.0 1.0 0.00 0.00 0.00 73 1015.0